Regional Weather Roundup
Issued by NWS Midland/Odessa, TX

Skip options and go directly to product.
Home | Oldest Version | Previous Version | Current Version | All | Text Only | Save Text | Print | Product List | Glossary Off

Skip product version selection by date and time.   

096
ASUS44 KMAF 010710
RWRMAF
MIDLAND AREA WEATHER ROUNDUP
NATIONAL WEATHER SERVICE MIDLAND TX
200 AM CDT MON SEP 01 2014

...IN SOUTHWEST TEXAS AND SOUTHEAST NEW MEXICO...

CITY           SKY/WX    TMP DP  RH WIND       PRES   REMARKS
ALPINE         CLEAR     77  58  51 SW7       30.09F
ANDREWS        FAIR      80  60  50 S10G18    29.93F
ARTESIA        NOT AVBL
BIG SPRING     CLEAR     82  62  50 S14       29.93S
CARLSBAD       CLEAR     83  59  44 S8        29.90R
DRYDEN           N/A     88  63  43 SE12      29.90S
FORT STOCKTON  CLEAR     80  62  54 S17G28    29.92F
GUAD PASS      CLEAR     78  43  28 W12       30.11S
HOBBS          CLEAR     77  57  50 S16G23    29.96S
MARFA          CLEAR     66  54  63 NW7       30.11S
MIDLAND AIRPK  NOT AVBL
MIDLAND INTL   CLEAR     82  63  52 S13       29.92S
ODESSA         CLEAR     82  61  48 S18       29.93S
PECOS          CLEAR     82  61  49 SE10      29.87F
PRESIDIO       FAIR      87  59  39 N9        29.91S
SEMINOLE       CLEAR     80  58  47 S15       29.95S
SNYDER         CLEAR     80  64  58 S10       29.91R
WINK           CLEAR     83  62  49 SE18      29.89S
$$
...OTHER STATIONS IN TEXAS...

CITY           SKY/WX    TMP DP  RH WIND       PRES   REMARKS
ABILENE        CLEAR     83  66  56 S17G24    29.88S
AMARILLO       CLEAR     79  57  46 S23G31    29.86S
AUSTIN         CLOUDY    79  74  84 S12       29.94F
BROWNSVILLE    CLEAR     80  79  96 SE3       29.91F
CORPUS CHRISTI PTCLDY    81  78  91 S7        29.91F
DALLAS FTW     CLEAR     81  69  67 S17G24    29.88S
DEL RIO        CLEAR     86  70  58 SE14      29.88S
EL PASO        CLEAR     87  39  18 W5        29.97R
HOUSTON INT    MOCLDY    75  75 100 E5        29.95F
LUBBOCK        CLEAR     80  60  50 S23G32    29.91R
SAN ANGELO     CLEAR     82  68  62 S14G24    29.90F
SAN ANTONIO    MOCLDY    81  74  79 S12       29.96S
WACO           CLEAR     79  71  76 S15G24    29.93S
WICHITA FALLS  NOT AVBL
$$
...OTHER LOCATIONS IN NEW MEXICO...

CITY           SKY/WX    TMP DP  RH WIND       PRES   REMARKS
ALAMAGORDO     CLEAR     72  39  30 E3        29.99R
ALBUQUERQUE    PTCLDY    74  35  24 SE5       30.05R
CANNON AFB     CLEAR     68  44  42 S10       29.94R
CLOVIS           N/A     73  46  38 S14G21    29.96S
HOLLOMAN AFB   CLEAR     77  39  25 SE7       29.96S
ROSWELL        CLEAR     76  46  34 W9        29.89S
RUIDOSO        CLEAR     68  36  30 NW5       30.19S
SANTA FE       CLEAR     61  33  35 N3        30.10S
TRUTH OR CONSE CLEAR     76  39  26 W9        30.02S
TUCUMCARI      CLEAR     75  39  27 SW10      29.88R
$$

USA.gov is the U.S. government's official web portal to all federal, state and local government web resources and services.